User: anonymous   Login
Location: Vancouver
(49.2500°N, 123.1330°W)
Time: 04:54:38
(UTC-07:00)
Language:

YAOGAN 6 - Orbit

View from above orbital plane
View from above orbital plane
View from above satellite
View from above satellite

Ground track
Ground track

The orbit data is extracted from the following two-line orbital elements,

1 34839U 09021A   16178.18686027  .00001017  00000-0  43164-4 0  9991
2 34839  97.1924 237.5630 0029804 140.3409 284.2355 15.24902172398328
Epoch (UTC): 26 June 2016 04:29:04
Eccentricity: 0.0029804
inclination: 97.1924°
perigee height: 470 km
apogee height: 511 km
right ascension of ascending node: 237.5630°
argument of perigee: 140.3409°
revolutions per day: 15.24902172
mean anomaly at epoch: 284.2355°
orbit number at epoch: 39832

The dashed part of the orbit path shows where the satellite is in the earth's shadow,  

DLR